TimeEST,TemperatureF,Dew PointF,Humidity,Sea Level PressureIn,VisibilityMPH,Wind Direction,Wind SpeedMPH,Gust SpeedMPH,PrecipitationIn,Events,Conditions,WindDirDegrees,DateUTC
12:53 AM,62.1,60.1,93,30.07,-9999.0,North,8.1,-,N/A,,Unknown,360,2013-01-03 05:53:00
1:53 AM,61.0,59.0,93,30.07,-9999.0,Variable,4.6,-,N/A,,Unknown,0,2013-01-03 06:53:00
2:53 AM,61.0,59.0,93,30.06,-9999.0,Variable,3.5,-,N/A,,Unknown,0,2013-01-03 07:53:00
3:53 AM,61.0,57.9,90,30.06,-9999.0,Variable,3.5,-,N/A,,Unknown,0,2013-01-03 08:53:00
4:53 AM,60.1,57.9,93,30.06,-9999.0,North,5.8,-,N/A,,Unknown,10,2013-01-03 09:53:00
5:53 AM,60.1,57.0,90,30.08,-9999.0,NNE,8.1,-,N/A,,Unknown,20,2013-01-03 10:53:00
6:53 AM,59.0,57.0,93,30.10,-9999.0,NNE,8.1,-,N/A,,Unknown,20,2013-01-03 11:53:00
7:53 AM,59.0,55.9,90,30.11,-9999.0,NNE,6.9,-,N/A,,Unknown,20,2013-01-03 12:53:00
8:53 AM,59.0,55.9,90,30.12,-9999.0,NNE,8.1,-,N/A,,Unknown,20,2013-01-03 13:53:00
9:53 AM,59.0,57.0,93,30.16,-9999.0,North,5.8,-,0.03,,Unknown,10,2013-01-03 14:53:00
10:53 AM,57.0,55.0,93,30.17,-9999.0,North,11.5,-,0.06,,Unknown,360,2013-01-03 15:53:00
11:53 AM,55.0,54.0,96,30.17,-9999.0,North,10.4,-,0.02,,Unknown,360,2013-01-03 16:53:00
12:53 PM,55.0,52.0,89,30.15,-9999.0,North,8.1,-,0.01,,Unknown,10,2013-01-03 17:53:00
1:53 PM,55.0,51.1,86,30.14,-9999.0,North,6.9,-,N/A,,Unknown,10,2013-01-03 18:53:00
2:53 PM,53.1,52.0,96,30.13,-9999.0,NE,4.6,-,0.07,,Unknown,40,2013-01-03 19:53:00
3:53 PM,54.0,53.1,97,30.14,-9999.0,NE,5.8,-,0.01,,Unknown,40,2013-01-03 20:53:00
4:53 PM,53.1,52.0,96,30.17,-9999.0,North,8.1,-,0.02,,Unknown,10,2013-01-03 21:53:00
5:53 PM,51.1,48.9,92,30.18,-9999.0,NNE,11.5,18.4,0.01,,Unknown,20,2013-01-03 22:53:00
6:53 PM,50.0,48.0,93,30.19,-9999.0,NNE,9.2,-,N/A,,Unknown,30,2013-01-03 23:53:00
7:53 PM,48.9,46.9,93,30.23,-9999.0,NNE,10.4,17.3,N/A,,Unknown,20,2013-01-04 00:53:00
8:53 PM,48.9,46.9,93,30.24,-9999.0,ENE,4.6,-,N/A,,Unknown,60,2013-01-04 01:53:00
9:53 PM,50.0,48.0,93,30.25,-9999.0,North,6.9,-,N/A,,Unknown,10,2013-01-04 02:53:00
10:53 PM,50.0,46.9,89,30.24,-9999.0,East,4.6,-,N/A,,Unknown,90,2013-01-04 03:53:00
11:53 PM,50.0,48.0,93,30.25,-9999.0,NNE,5.8,-,N/A,,Unknown,20,2013-01-04 04:53:00